• In Hungary
  • List of Countries
  • For 7 days
  • Water Temperature
  • Satellite Maps
  • Weather Map
  • News
  • Weather Widgets
  • user-avatar
    Login

    Hourly Weather Pletni

    Today, 18 June, Monday

    Time Temperature Precipitation Wind Pressure Humidity
    00:00 +15°C° 0 mm 1 mps 748 mmHg 77%
    01:00 +15°C° 0 mm 1 mps 748 mmHg 77%
    02:00 +14°C° 0 mm 1 mps 748 mmHg 78%
    03:00 +14°C° 0 mm 2 mps 748 mmHg 78%
    04:00 +15°C° 0 mm 2 mps 748 mmHg 78%
    05:00 +15°C° 0 mm 2 mps 748 mmHg 78%
    06:00 +16°C° 0 mm 2 mps 748 mmHg 79%
    07:00 +18°C° 0 mm 2 mps 748 mmHg 75%
    08:00 +20°C° 0 mm 2 mps 748 mmHg 70%
    09:00 +22°C° 0 mm 3 mps 748 mmHg 65%
    10:00 +24°C° 0 mm 3 mps 748 mmHg 60%
    11:00 +25°C° 0 mm 3 mps 748 mmHg 55%
    12:00 +26°C° 0 mm 3 mps 748 mmHg 50%
    13:00 +26°C° 0 mm 3 mps 748 mmHg 51%
    14:00 +26°C° 0 mm 3 mps 748 mmHg 52%
    15:00 +26°C° 0 mm 2 mps 747 mmHg 54%
    16:00 +26°C° 0 mm 2 mps 747 mmHg 58%
    17:00 +26°C° 0 mm 2 mps 747 mmHg 62%
    18:00 +25°C° 0 mm 2 mps 747 mmHg 67%
    19:00 +24°C° 0 mm 2 mps 747 mmHg 70%
    20:00 +21°C° 0 mm 2 mps 747 mmHg 74%
    21:00 +20°C° 0 mm 1 mps 747 mmHg 78%
    22:00 +19°C° 0 mm 1 mps 747 mmHg 81%
    23:00 +19°C° 0 mm 1 mps 747 mmHg 84%

    Tomorrow, 19 June, Tuesday

    Time Temperature Precipitation Wind Pressure Humidity
    00:00 +18°C° 0 mm 1 mps 747 mmHg 86%
    01:00 +18°C° 0 mm 1 mps 747 mmHg 87%
    02:00 +16°C° 0 mm 1 mps 748 mmHg 87%
    03:00 +16°C° 0 mm 1 mps 748 mmHg 87%
    04:00 +18°C° 0 mm 1 mps 748 mmHg 87%
    05:00 +19°C° 0 mm 1 mps 748 mmHg 86%
    06:00 +19°C° 0 mm 1 mps 748 mmHg 85%
    07:00 +21°C° 0.2 mm 1 mps 748 mmHg 81%
    08:00 +21°C° 0.2 mm 2 mps 748 mmHg 77%
    09:00 +23°C° 0.2 mm 2 mps 748 mmHg 72%
    10:00 +24°C° 0.7 mm 2 mps 748 mmHg 68%
    11:00 +25°C° 0.7 mm 2 mps 748 mmHg 63%
    12:00 +26°C° 0.7 mm 2 mps 748 mmHg 58%
    13:00 +27°C° 0.8 mm 2 mps 747 mmHg 59%
    14:00 +27°C° 0.8 mm 2 mps 747 mmHg 60%
    15:00 +27°C° 0.8 mm 2 mps 747 mmHg 61%
    16:00 +26°C° 0.5 mm 2 mps 747 mmHg 65%
    17:00 +26°C° 0.5 mm 2 mps 747 mmHg 70%
    18:00 +25°C° 0.5 mm 2 mps 746 mmHg 74%
    19:00 +24°C° 0.1 mm 2 mps 746 mmHg 78%
    20:00 +21°C° 0.1 mm 2 mps 746 mmHg 82%
    21:00 +19°C° 0.1 mm 2 mps 746 mmHg 86%
    22:00 +19°C° 0 mm 2 mps 746 mmHg 88%
    23:00 +18°C° 0 mm 3 mps 746 mmHg 89%

    Day after tomorrow, 20 June, Wednesday

    Time Temperature Precipitation Wind Pressure Humidity
    00:00 +17°C° 0 mm 3 mps 746 mmHg 91%
    01:00 +17°C° 0 mm 3 mps 746 mmHg 92%
    02:00 +17°C° 0 mm 3 mps 746 mmHg 92%
    03:00 +17°C° 0 mm 3 mps 745 mmHg 93%
    04:00 +17°C° 0 mm 4 mps 745 mmHg 93%
    05:00 +18°C° 0 mm 4 mps 745 mmHg 93%
    06:00 +19°C° 0 mm 4 mps 745 mmHg 92%
    07:00 +20°C° 0.2 mm 4 mps 745 mmHg 88%
    08:00 +22°C° 0.2 mm 5 mps 745 mmHg 84%
    09:00 +23°C° 0.2 mm 5 mps 745 mmHg 79%
    10:00 +25°C° 0.1 mm 5 mps 745 mmHg 74%
    11:00 +26°C° 0.1 mm 5 mps 745 mmHg 68%
    12:00 +27°C° 0.1 mm 6 mps 745 mmHg 62%
    13:00 +27°C° 0 mm 6 mps 745 mmHg 62%
    14:00 +26°C° 0 mm 6 mps 745 mmHg 62%
    15:00 +26°C° 0 mm 6 mps 745 mmHg 62%
    16:00 +26°C° 0 mm 5 mps 745 mmHg 66%
    17:00 +26°C° 0 mm 4 mps 745 mmHg 69%
    18:00 +25°C° 0 mm 4 mps 745 mmHg 72%
    19:00 +22°C° 0 mm 3 mps 746 mmHg 77%
    20:00 +20°C° 0 mm 3 mps 746 mmHg 82%
    21:00 +18°C° 0 mm 3 mps 746 mmHg 87%
    22:00 +17°C° 0 mm 2 mps 747 mmHg 88%
    23:00 +16°C° 0 mm 2 mps 747 mmHg 88%

    21 June, Thursday

    Time Temperature Precipitation Wind Pressure Humidity
    00:00 +16°C° 0 mm 2 mps 747 mmHg 89%
    01:00 +15°C° 0 mm 2 mps 747 mmHg 88%
    02:00 +14°C° 0 mm 2 mps 747 mmHg 87%
    03:00 +14°C° 0 mm 2 mps 747 mmHg 87%
    04:00 +15°C° 0 mm 2 mps 747 mmHg 85%
    05:00 +15°C° 0 mm 2 mps 747 mmHg 83%
    06:00 +16°C° 0 mm 2 mps 747 mmHg 81%
    07:00 +18°C° 0 mm 2 mps 748 mmHg 76%
    08:00 +20°C° 0 mm 3 mps 748 mmHg 71%
    09:00 +22°C° 0 mm 3 mps 748 mmHg 66%
    10:00 +24°C° 0 mm 3 mps 748 mmHg 63%
    11:00 +24°C° 0 mm 3 mps 748 mmHg 60%
    12:00 +25°C° 0 mm 4 mps 747 mmHg 57%
    13:00 +26°C° 0 mm 4 mps 747 mmHg 57%
    14:00 +26°C° 0 mm 4 mps 747 mmHg 58%
    15:00 +26°C° 0 mm 4 mps 747 mmHg 58%
    16:00 +26°C° 0 mm 3 mps 747 mmHg 61%
    17:00 +26°C° 0 mm 3 mps 747 mmHg 65%
    18:00 +25°C° 0 mm 2 mps 747 mmHg 69%
    19:00 +24°C° 0 mm 2 mps 747 mmHg 74%
    20:00 +21°C° 0 mm 2 mps 747 mmHg 79%
    21:00 +20°C° 0 mm 1 mps 747 mmHg 84%
    22:00 +19°C° 0 mm 1 mps 747 mmHg 85%
    23:00 +19°C° 0 mm 1 mps 747 mmHg 86%

    22 June, Friday

    Time Temperature Precipitation Wind Pressure Humidity
    00:00 +18°C° 0 mm 1 mps 747 mmHg 88%
    01:00 +18°C° 0 mm 1 mps 747 mmHg 88%
    02:00 +15°C° 0 mm 0 mps 748 mmHg 88%
    03:00 +15°C° 0 mm 0 mps 748 mmHg 88%
    04:00 +16°C° 0 mm 0 mps 748 mmHg 86%
    05:00 +19°C° 0 mm 1 mps 748 mmHg 84%
    06:00 +20°C° 0 mm 1 mps 748 mmHg 82%
    07:00 +21°C° 0 mm 1 mps 748 mmHg 78%
    08:00 +23°C° 0 mm 2 mps 748 mmHg 73%
    09:00 +24°C° 0 mm 2 mps 748 mmHg 68%
    10:00 +25°C° 0 mm 3 mps 748 mmHg 65%
    11:00 +26°C° 0 mm 3 mps 748 mmHg 63%
    12:00 +27°C° 0 mm 3 mps 748 mmHg 60%
    13:00 +28°C° 0 mm 3 mps 747 mmHg 59%
    14:00 +28°C° 0 mm 3 mps 747 mmHg 59%
    15:00 +28°C° 0 mm 4 mps 747 mmHg 59%
    16:00 +28°C° 0 mm 3 mps 746 mmHg 63%
    17:00 +28°C° 0 mm 3 mps 746 mmHg 67%
    18:00 +27°C° 0 mm 3 mps 746 mmHg 70%
    19:00 +26°C° 0 mm 3 mps 746 mmHg 75%
    20:00 +24°C° 0 mm 3 mps 746 mmHg 79%
    21:00 +21°C° 0 mm 2 mps 746 mmHg 83%
    22:00 +20°C° 0 mm 3 mps 746 mmHg 84%
    23:00 +20°C° 0 mm 3 mps 746 mmHg 85%

    23 June, Saturday

    Time Temperature Precipitation Wind Pressure Humidity
    00:00 +19°C° 0 mm 3 mps 745 mmHg 85%
    01:00 +19°C° 0 mm 3 mps 745 mmHg 83%
    02:00 +19°C° 0 mm 3 mps 745 mmHg 81%
    03:00 +19°C° 0 mm 4 mps 745 mmHg 79%
    04:00 +19°C° 0 mm 4 mps 745 mmHg 79%
    05:00 +20°C° 0 mm 4 mps 745 mmHg 79%
    06:00 +20°C° 0 mm 4 mps 745 mmHg 79%
    07:00 +21°C° 0 mm 4 mps 745 mmHg 76%
    08:00 +23°C° 0 mm 4 mps 745 mmHg 72%
    09:00 +25°C° 0 mm 5 mps 745 mmHg 69%
    10:00 +26°C° 0 mm 5 mps 745 mmHg 67%
    11:00 +27°C° 0 mm 5 mps 745 mmHg 66%
    12:00 +27°C° 0 mm 5 mps 745 mmHg 64%
    13:00 +28°C° 0.1 mm 5 mps 745 mmHg 64%
    14:00 +28°C° 0.1 mm 5 mps 745 mmHg 64%
    15:00 +28°C° 0.1 mm 5 mps 744 mmHg 63%
    16:00 +28°C° 1.1 mm 4 mps 744 mmHg 69%
    17:00 +27°C° 1.1 mm 4 mps 744 mmHg 74%
    18:00 +26°C° 1.1 mm 3 mps 744 mmHg 80%
    19:00 +25°C° 0.3 mm 3 mps 744 mmHg 83%
    20:00 +22°C° 0.3 mm 3 mps 744 mmHg 85%
    21:00 +21°C° 0.3 mm 2 mps 744 mmHg 88%
    22:00 +21°C° 0.5 mm 2 mps 743 mmHg 88%
    23:00 +20°C° 0.5 mm 2 mps 743 mmHg 89%
    Show more